Simultaneous Nadir Overpasses (SNOs) Predictions

Prediction of SNOs between AQUA and NPP Satellite Orbit:

Table of predicted SNOs for the next 14.0 days since TLE Epoch: 8/10/2024
Index Date (AQUA) Time (AQUA) Lat,Lon (AQUA) SZA (AQUA ) Date (NPP) Time (NPP) Lat,Lon (NPP) SZA (NPP ) Distance(km) Time Diff (sec)
1 08/10/2024 08:01:59 81.27, -15.31 72.71 08/10/2024 08:00:46 81.27, -15.25 72.74 1.15 73
2 08/10/2024 08:51:20 -81.29, 152.71 107.34 08/10/2024 08:51:29 -81.28, 152.84 107.36 2.26 9
3 08/12/2024 20:05:06 -81.27, -16.14 106.57 08/12/2024 20:03:57 -81.27, -16.30 106.50 2.79 69
4 08/12/2024 20:54:26 81.28, 151.90 73.40 08/12/2024 20:54:40 81.28, 151.73 73.41 2.99 14
5 08/15/2024 08:08:10 81.28, -16.65 74.15 08/15/2024 08:07:07 81.27, -16.77 74.21 2.09 63
6 08/15/2024 08:57:32 -81.27, 151.00 105.84 08/15/2024 08:57:51 -81.28, 151.00 105.85 0.57 19
7 08/17/2024 20:11:13 -81.28, -17.24 105.11 08/17/2024 20:10:17 -81.28, -17.18 105.09 1.08 56
8 08/17/2024 21:00:34 81.28, 150.37 74.91 08/17/2024 21:01:01 81.28, 150.39 74.89 0.51 27
9 08/20/2024 08:14:13 81.28, -17.94 75.68 08/20/2024 08:13:27 81.28, -17.91 75.70 0.55 46
10 08/20/2024 09:03:35 -81.28, 149.69 104.32 08/20/2024 09:04:12 -81.28, 149.53 104.31 2.78 37
11 08/22/2024 20:17:12 -81.28, -18.69 103.52 08/22/2024 20:16:38 -81.28, -18.84 103.48 2.54 34



Historial Predications of SNOs between AQUA and NPP
